Volver al catálogo

STARLINK-34768

ActivoComunicacionesVLEO
NORAD 65095·PAYLOAD·🇺🇸 United States

Lanzado Aug 4, 2025 desde Cape Canaveral Space Force Station

Loading…

Próximos Pases (próximas 24 horas)

TLE

ActualizadoSource: CelesTrak SupGP

Época: Sep 14, 2026, 20:51 UTC

1 65095C 25167T   26257.86923611  .00041070  00000+0  12134-2 0  2575
2 65095  53.1581 220.3452 0001470  88.6922 173.3325 15.34370477    11

Sigue STARLINK-34768 en tiempo real con AllMySat

Download on the App Store